Year,Month,Day,Hour,Minute,Value (Times are PST for temperature in C)
2018,07,29,00,00,18.10
2018,07,29,00,01,18.10
2018,07,29,00,02,18.10
2018,07,29,00,03,18.10
2018,07,29,00,04,18.10
2018,07,29,00,05,18.10
2018,07,29,00,06,18.10
2018,07,29,00,07,18.00
2018,07,29,00,08,18.00
2018,07,29,00,09,18.00
2018,07,29,00,10,18.00
2018,07,29,00,11,18.00
2018,07,29,00,12,17.90
2018,07,29,00,13,17.90
2018,07,29,00,14,17.90
2018,07,29,00,15,17.90
2018,07,29,00,16,17.90
2018,07,29,00,17,17.90
2018,07,29,00,18,17.90
2018,07,29,00,19,17.90
2018,07,29,00,20,17.80
2018,07,29,00,21,17.80
2018,07,29,00,22,17.80
2018,07,29,00,23,17.80
2018,07,29,00,24,17.80
2018,07,29,00,25,17.70
2018,07,29,00,26,17.70
2018,07,29,00,27,17.70
2018,07,29,00,28,17.70
2018,07,29,00,29,17.70
2018,07,29,00,30,17.60
2018,07,29,00,31,17.60
2018,07,29,00,32,17.60
2018,07,29,00,33,17.60
2018,07,29,00,34,17.60
2018,07,29,00,35,17.60
2018,07,29,00,36,17.60
2018,07,29,00,37,17.50
2018,07,29,00,38,17.50
2018,07,29,00,39,17.50
2018,07,29,00,40,17.50
2018,07,29,00,41,17.50
2018,07,29,00,42,17.40
2018,07,29,00,43,17.40
2018,07,29,00,44,17.40
2018,07,29,00,45,17.40
2018,07,29,00,46,17.40
2018,07,29,00,47,17.40
2018,07,29,00,48,17.40
2018,07,29,00,49,17.40
2018,07,29,00,50,17.40
2018,07,29,00,51,17.30
2018,07,29,00,52,17.30
2018,07,29,00,53,17.30
2018,07,29,00,54,17.30
2018,07,29,00,55,17.30
2018,07,29,00,56,17.30
2018,07,29,00,57,17.30
2018,07,29,00,58,17.30
2018,07,29,00,59,17.20
2018,07,29,01,00,17.20
2018,07,29,01,01,17.20
2018,07,29,01,02,17.20
2018,07,29,01,03,17.20
2018,07,29,01,04,17.10
2018,07,29,01,05,17.10
2018,07,29,01,06,17.10
2018,07,29,01,07,17.10
2018,07,29,01,08,17.10
2018,07,29,01,09,17.10
2018,07,29,01,10,17.00
2018,07,29,01,11,17.00
2018,07,29,01,12,17.00
2018,07,29,01,13,17.00
2018,07,29,01,14,16.90
2018,07,29,01,15,16.90
2018,07,29,01,16,16.90
2018,07,29,01,17,16.90
2018,07,29,01,18,16.90
2018,07,29,01,19,16.90
2018,07,29,01,20,16.80
2018,07,29,01,21,16.80
2018,07,29,01,22,16.80
2018,07,29,01,23,16.80
2018,07,29,01,24,16.80
2018,07,29,01,25,16.80
2018,07,29,01,26,16.80
2018,07,29,01,27,16.80
2018,07,29,01,28,16.80
2018,07,29,01,29,16.80
2018,07,29,01,30,16.70
2018,07,29,01,31,16.70
2018,07,29,01,32,16.70
2018,07,29,01,33,16.70
2018,07,29,01,34,16.70
2018,07,29,01,35,16.60
2018,07,29,01,36,16.60
2018,07,29,01,37,16.60
2018,07,29,01,38,16.60
2018,07,29,01,39,16.50
2018,07,29,01,40,16.50
2018,07,29,01,41,16.50
2018,07,29,01,42,16.50
2018,07,29,01,43,16.40
2018,07,29,01,44,16.40
2018,07,29,01,45,16.40
2018,07,29,01,46,16.40
2018,07,29,01,47,16.40
2018,07,29,01,48,16.30
2018,07,29,01,49,16.30
2018,07,29,01,50,16.30
2018,07,29,01,51,16.30
2018,07,29,01,52,16.30
2018,07,29,01,53,16.30
2018,07,29,01,54,16.30
2018,07,29,01,55,16.20
2018,07,29,01,56,16.20
2018,07,29,01,57,16.20
2018,07,29,01,58,16.20
2018,07,29,01,59,16.20
2018,07,29,02,00,16.20
2018,07,29,02,01,16.20
2018,07,29,02,02,16.10
2018,07,29,02,03,16.10
2018,07,29,02,04,16.10
2018,07,29,02,05,16.10
2018,07,29,02,06,16.10
2018,07,29,02,07,16.10
2018,07,29,02,08,16.00
2018,07,29,02,09,16.00
2018,07,29,02,10,16.00
2018,07,29,02,11,16.00
2018,07,29,02,12,16.00
2018,07,29,02,13,15.90
2018,07,29,02,14,15.90
2018,07,29,02,15,15.90
2018,07,29,02,16,15.90
2018,07,29,02,17,15.90
2018,07,29,02,18,15.90
2018,07,29,02,19,15.90
2018,07,29,02,20,15.90
2018,07,29,02,21,15.90
2018,07,29,02,22,15.90
2018,07,29,02,23,15.90
2018,07,29,02,24,15.90
2018,07,29,02,25,15.90
2018,07,29,02,26,15.90
2018,07,29,02,27,15.90
2018,07,29,02,28,15.90
2018,07,29,02,29,15.90
2018,07,29,02,30,15.90
2018,07,29,02,31,15.90
2018,07,29,02,32,15.80
2018,07,29,02,33,15.80
2018,07,29,02,34,15.80
2018,07,29,02,35,15.80
2018,07,29,02,36,15.80
2018,07,29,02,37,15.80
2018,07,29,02,38,15.80
2018,07,29,02,39,15.80
2018,07,29,02,40,15.80
2018,07,29,02,41,15.80
2018,07,29,02,42,15.70
2018,07,29,02,43,15.70
2018,07,29,02,44,15.70
2018,07,29,02,45,15.70
2018,07,29,02,46,15.70
2018,07,29,02,47,15.70
2018,07,29,02,48,15.70
2018,07,29,02,49,15.70
2018,07,29,02,50,15.70
2018,07,29,02,51,15.60
2018,07,29,02,52,15.60
2018,07,29,02,53,15.60
2018,07,29,02,54,15.60
2018,07,29,02,55,15.60
2018,07,29,02,56,15.60
2018,07,29,02,57,15.60
2018,07,29,02,58,15.60
2018,07,29,02,59,15.50
2018,07,29,03,00,15.50
2018,07,29,03,01,15.50
2018,07,29,03,02,15.50
2018,07,29,03,03,15.50
2018,07,29,03,04,15.50
2018,07,29,03,05,15.40
2018,07,29,03,06,15.40
2018,07,29,03,07,15.40
2018,07,29,03,08,15.40
2018,07,29,03,09,15.40
2018,07,29,03,10,15.40
2018,07,29,03,11,15.40
2018,07,29,03,12,15.40
2018,07,29,03,13,15.30
2018,07,29,03,14,15.30
2018,07,29,03,15,15.30
2018,07,29,03,16,15.30
2018,07,29,03,17,15.30
2018,07,29,03,18,15.30
2018,07,29,03,19,15.30
2018,07,29,03,20,15.30
2018,07,29,03,21,15.20
2018,07,29,03,22,15.20
2018,07,29,03,23,15.20
2018,07,29,03,24,15.20
2018,07,29,03,25,15.20
2018,07,29,03,26,15.20
2018,07,29,03,27,15.20
2018,07,29,03,28,15.20
2018,07,29,03,29,15.20
2018,07,29,03,30,15.20
2018,07,29,03,31,15.10
2018,07,29,03,32,15.10
2018,07,29,03,33,15.10
2018,07,29,03,34,15.10
2018,07,29,03,35,15.10
2018,07,29,03,36,15.10
2018,07,29,03,37,15.10
2018,07,29,03,38,15.10
2018,07,29,03,39,15.10
2018,07,29,03,40,15.10
2018,07,29,03,41,15.00
2018,07,29,03,42,15.00
2018,07,29,03,43,15.00
2018,07,29,03,44,15.00
2018,07,29,03,45,15.00
2018,07,29,03,46,14.90
2018,07,29,03,47,14.90
2018,07,29,03,48,14.90
2018,07,29,03,49,14.90
2018,07,29,03,50,14.90
2018,07,29,03,51,14.90
2018,07,29,03,52,14.90
2018,07,29,03,53,14.90
2018,07,29,03,54,14.90
2018,07,29,03,55,14.90
2018,07,29,03,56,14.90
2018,07,29,03,57,14.90
2018,07,29,03,58,14.90
2018,07,29,03,59,14.80
2018,07,29,04,00,14.80
2018,07,29,04,01,14.80
2018,07,29,04,02,14.80
2018,07,29,04,03,14.80
2018,07,29,04,04,14.80
2018,07,29,04,05,14.80
2018,07,29,04,06,14.80
2018,07,29,04,07,14.80
2018,07,29,04,08,14.80
2018,07,29,04,09,14.70
2018,07,29,04,10,14.70
2018,07,29,04,11,14.70
2018,07,29,04,12,14.70
2018,07,29,04,13,14.70
2018,07,29,04,14,14.70
2018,07,29,04,15,14.70
2018,07,29,04,16,14.70
2018,07,29,04,17,14.70
2018,07,29,04,18,14.70
2018,07,29,04,19,14.60
2018,07,29,04,20,14.60
2018,07,29,04,21,14.60
2018,07,29,04,22,14.60
2018,07,29,04,23,14.60
2018,07,29,04,24,14.60
2018,07,29,04,25,14.60
2018,07,29,04,26,14.50
2018,07,29,04,27,14.50
2018,07,29,04,28,14.50
2018,07,29,04,29,14.50
2018,07,29,04,30,14.50
2018,07,29,04,31,14.50
2018,07,29,04,32,14.50
2018,07,29,04,33,14.40
2018,07,29,04,34,14.40
2018,07,29,04,35,14.40
2018,07,29,04,36,14.40
2018,07,29,04,37,14.40
2018,07,29,04,38,14.40
2018,07,29,04,39,14.40
2018,07,29,04,40,14.40
2018,07,29,04,41,14.40
2018,07,29,04,42,14.40
2018,07,29,04,43,14.40
2018,07,29,04,44,14.40
2018,07,29,04,45,14.40
2018,07,29,04,46,14.40
2018,07,29,04,47,14.40
2018,07,29,04,48,14.40
2018,07,29,04,49,14.40
2018,07,29,04,50,14.40
2018,07,29,04,51,14.40
2018,07,29,04,52,14.40
2018,07,29,04,53,14.40
2018,07,29,04,54,14.40
2018,07,29,04,55,14.40
2018,07,29,04,56,14.30
2018,07,29,04,57,14.40
2018,07,29,04,58,14.30
2018,07,29,04,59,14.30
2018,07,29,05,00,14.30
2018,07,29,05,01,14.30
2018,07,29,05,02,14.30
2018,07,29,05,03,14.30
2018,07,29,05,04,14.30
2018,07,29,05,05,14.30
2018,07,29,05,06,14.30
2018,07,29,05,07,14.30
2018,07,29,05,08,14.30
2018,07,29,05,09,14.30
2018,07,29,05,10,14.30
2018,07,29,05,11,14.30
2018,07,29,05,12,14.30
2018,07,29,05,13,14.30
2018,07,29,05,14,14.20
2018,07,29,05,15,14.20
2018,07,29,05,16,14.20
2018,07,29,05,17,14.20
2018,07,29,05,18,14.20
2018,07,29,05,19,14.20
2018,07,29,05,20,14.20
2018,07,29,05,21,14.20
2018,07,29,05,22,14.20
2018,07,29,05,23,14.20
2018,07,29,05,24,14.20
2018,07,29,05,25,14.20
2018,07,29,05,26,14.20
2018,07,29,05,27,14.20
2018,07,29,05,28,14.20
2018,07,29,05,29,14.20
2018,07,29,05,30,14.20
2018,07,29,05,31,14.20
2018,07,29,05,32,14.20
2018,07,29,05,33,14.20
2018,07,29,05,34,14.20
2018,07,29,05,35,14.20
2018,07,29,05,36,14.10
2018,07,29,05,37,14.10
2018,07,29,05,38,14.20
2018,07,29,05,39,14.10
2018,07,29,05,40,14.10
2018,07,29,05,41,14.10
2018,07,29,05,42,14.10
2018,07,29,05,43,14.10
2018,07,29,05,44,14.10
2018,07,29,05,45,14.10
2018,07,29,05,46,14.10
2018,07,29,05,47,14.10
2018,07,29,05,48,14.10
2018,07,29,05,49,14.10
2018,07,29,05,50,14.10
2018,07,29,05,51,14.10
2018,07,29,05,52,14.10
2018,07,29,05,53,14.10
2018,07,29,05,54,14.10
2018,07,29,05,55,14.10
2018,07,29,05,56,14.10
2018,07,29,05,57,14.10
2018,07,29,05,58,14.10
2018,07,29,05,59,14.10
2018,07,29,06,00,14.10
2018,07,29,06,01,14.10
2018,07,29,06,02,14.10
2018,07,29,06,03,14.10
2018,07,29,06,04,14.10
2018,07,29,06,05,14.10
2018,07,29,06,06,14.10
2018,07,29,06,07,14.10
2018,07,29,06,08,14.10
2018,07,29,06,09,14.10
2018,07,29,06,10,14.10
2018,07,29,06,11,14.10
2018,07,29,06,12,14.10
2018,07,29,06,13,14.20
2018,07,29,06,14,14.10
2018,07,29,06,15,14.10
2018,07,29,06,16,14.10
2018,07,29,06,17,14.10
2018,07,29,06,18,14.10
2018,07,29,06,19,14.10
2018,07,29,06,20,14.10
2018,07,29,06,21,14.10
2018,07,29,06,22,14.10
2018,07,29,06,23,14.10
2018,07,29,06,24,14.10
2018,07,29,06,25,14.20
2018,07,29,06,26,14.20
2018,07,29,06,27,14.20
2018,07,29,06,28,14.20
2018,07,29,06,29,14.20
2018,07,29,06,30,14.20
2018,07,29,06,31,14.20
2018,07,29,06,32,14.20
2018,07,29,06,33,14.20
2018,07,29,06,34,14.20
2018,07,29,06,35,14.20
2018,07,29,06,36,14.20
2018,07,29,06,37,14.20
2018,07,29,06,38,14.20
2018,07,29,06,39,14.20
2018,07,29,06,40,14.20
2018,07,29,06,41,14.20
2018,07,29,06,42,14.20
2018,07,29,06,43,14.20
2018,07,29,06,44,14.20
2018,07,29,06,45,14.20
2018,07,29,06,46,14.20
2018,07,29,06,47,14.20
2018,07,29,06,48,14.20
2018,07,29,06,49,14.30
2018,07,29,06,50,14.30
2018,07,29,06,51,14.30
2018,07,29,06,52,14.30
2018,07,29,06,53,14.30
2018,07,29,06,54,14.30
2018,07,29,06,55,14.30
2018,07,29,06,56,14.30
2018,07,29,06,57,14.30
2018,07,29,06,58,14.30
2018,07,29,06,59,14.40
2018,07,29,07,00,14.40
2018,07,29,07,01,14.40
2018,07,29,07,02,14.40
2018,07,29,07,03,14.40
2018,07,29,07,04,14.40
2018,07,29,07,05,14.50
2018,07,29,07,06,14.50
2018,07,29,07,07,14.50
2018,07,29,07,08,14.50
2018,07,29,07,09,14.60
2018,07,29,07,10,14.60
2018,07,29,07,11,14.60
2018,07,29,07,12,14.70
2018,07,29,07,13,14.70
2018,07,29,07,14,14.70
2018,07,29,07,15,14.70
2018,07,29,07,16,14.80
2018,07,29,07,17,14.80
2018,07,29,07,18,14.80
2018,07,29,07,19,14.90
2018,07,29,07,20,14.90
2018,07,29,07,21,14.90
2018,07,29,07,22,14.90
2018,07,29,07,23,15.00
2018,07,29,07,24,15.00
2018,07,29,07,25,15.10
2018,07,29,07,26,15.10
2018,07,29,07,27,15.10
2018,07,29,07,28,15.20
2018,07,29,07,29,15.20
2018,07,29,07,30,15.20
2018,07,29,07,31,15.30
2018,07,29,07,32,15.30
2018,07,29,07,33,15.30
2018,07,29,07,34,15.40
2018,07,29,07,35,15.40
2018,07,29,07,36,15.40
2018,07,29,07,37,15.50
2018,07,29,07,38,15.50
2018,07,29,07,39,15.60
2018,07,29,07,40,15.60
2018,07,29,07,41,15.70
2018,07,29,07,42,15.70
2018,07,29,07,43,15.80
2018,07,29,07,44,15.80
2018,07,29,07,45,15.80
2018,07,29,07,46,15.90
2018,07,29,07,47,16.00
2018,07,29,07,48,16.00
2018,07,29,07,49,16.10
2018,07,29,07,50,16.20
2018,07,29,07,51,16.20
2018,07,29,07,52,16.30
2018,07,29,07,53,16.40
2018,07,29,07,54,16.50
2018,07,29,07,55,16.70
2018,07,29,07,56,16.80
2018,07,29,07,57,16.90
2018,07,29,07,58,17.00
2018,07,29,07,59,17.20
2018,07,29,08,00,17.30
2018,07,29,08,01,17.40
2018,07,29,08,02,17.60
2018,07,29,08,03,17.70
2018,07,29,08,04,17.80
2018,07,29,08,05,17.90
2018,07,29,08,06,18.10
2018,07,29,08,07,18.20
2018,07,29,08,08,18.30
2018,07,29,08,09,18.50
2018,07,29,08,10,18.60
2018,07,29,08,11,18.70
2018,07,29,08,12,18.90
2018,07,29,08,13,19.00
2018,07,29,08,14,19.20
2018,07,29,08,15,19.30
2018,07,29,08,16,19.40
2018,07,29,08,17,19.60
2018,07,29,08,18,19.70
2018,07,29,08,19,19.80
2018,07,29,08,20,19.90
2018,07,29,08,21,20.00
2018,07,29,08,22,20.00
2018,07,29,08,23,20.10
2018,07,29,08,24,20.10
2018,07,29,08,25,20.20
2018,07,29,08,26,20.20
2018,07,29,08,27,20.30
2018,07,29,08,28,20.30
2018,07,29,08,29,20.40
2018,07,29,08,30,20.50
2018,07,29,08,31,20.60
2018,07,29,08,32,20.60
2018,07,29,08,33,20.70
2018,07,29,08,34,20.80
2018,07,29,08,35,20.90
2018,07,29,08,36,20.90
2018,07,29,08,37,21.00
2018,07,29,08,38,21.10
2018,07,29,08,39,21.20
2018,07,29,08,40,21.30
2018,07,29,08,41,21.40
2018,07,29,08,42,21.50
2018,07,29,08,43,21.60
2018,07,29,08,44,21.70
2018,07,29,08,45,21.80
2018,07,29,08,46,21.90
2018,07,29,08,47,22.00
2018,07,29,08,48,22.10
2018,07,29,08,49,22.20
2018,07,29,08,50,22.20
2018,07,29,08,51,22.30
2018,07,29,08,52,22.40
2018,07,29,08,53,22.50
2018,07,29,08,54,22.60
2018,07,29,08,55,22.60
2018,07,29,08,56,22.60
2018,07,29,08,57,22.60
2018,07,29,08,58,22.60
2018,07,29,08,59,22.60
2018,07,29,09,00,22.70
2018,07,29,09,01,22.70
2018,07,29,09,02,22.80
2018,07,29,09,03,22.80
2018,07,29,09,04,22.90
2018,07,29,09,05,23.00
2018,07,29,09,06,23.10
2018,07,29,09,07,23.20
2018,07,29,09,08,23.30
2018,07,29,09,09,23.40
2018,07,29,09,10,23.50
2018,07,29,09,11,23.60
2018,07,29,09,12,23.70
2018,07,29,09,13,23.80
2018,07,29,09,14,23.80
2018,07,29,09,15,23.90
2018,07,29,09,16,24.00
2018,07,29,09,17,24.10
2018,07,29,09,18,24.20
2018,07,29,09,19,24.20
2018,07,29,09,20,24.30
2018,07,29,09,21,24.30
2018,07,29,09,22,24.40
2018,07,29,09,23,24.50
2018,07,29,09,24,24.50
2018,07,29,09,25,24.50
2018,07,29,09,26,24.60
2018,07,29,09,27,24.60
2018,07,29,09,28,24.70
2018,07,29,09,29,24.70
2018,07,29,09,30,24.80
2018,07,29,09,31,24.80
2018,07,29,09,32,24.80
2018,07,29,09,33,24.90
2018,07,29,09,34,24.90
2018,07,29,09,35,25.00
2018,07,29,09,36,25.00
2018,07,29,09,37,25.10
2018,07,29,09,38,25.10
2018,07,29,09,39,25.10
2018,07,29,09,40,25.20
2018,07,29,09,41,25.20
2018,07,29,09,42,25.20
2018,07,29,09,43,25.20
2018,07,29,09,44,25.20
2018,07,29,09,45,25.10
2018,07,29,09,46,25.00
2018,07,29,09,47,24.90
2018,07,29,09,48,24.90
2018,07,29,09,49,24.90
2018,07,29,09,50,24.90
2018,07,29,09,51,24.90
2018,07,29,09,52,24.90
2018,07,29,09,53,24.90
2018,07,29,09,54,25.00
2018,07,29,09,55,25.10
2018,07,29,09,56,25.20
2018,07,29,09,57,25.30
2018,07,29,09,58,25.40
2018,07,29,09,59,25.40
2018,07,29,10,00,25.50
2018,07,29,10,01,25.60
2018,07,29,10,02,25.70
2018,07,29,10,03,25.60
2018,07,29,10,04,25.60
2018,07,29,10,05,25.60
2018,07,29,10,06,25.60
2018,07,29,10,07,25.60
2018,07,29,10,08,25.70
2018,07,29,10,09,25.70
2018,07,29,10,10,25.80
2018,07,29,10,11,25.80
2018,07,29,10,12,25.80
2018,07,29,10,13,25.90
2018,07,29,10,14,26.00
2018,07,29,10,15,26.00
2018,07,29,10,16,26.10
2018,07,29,10,17,26.10
2018,07,29,10,18,26.10
2018,07,29,10,19,26.20
2018,07,29,10,20,26.20
2018,07,29,10,21,26.20
2018,07,29,10,22,26.20
2018,07,29,10,23,26.20
2018,07,29,10,24,26.20
2018,07,29,10,25,26.20
2018,07,29,10,26,26.20
2018,07,29,10,27,26.30
2018,07,29,10,28,26.30
2018,07,29,10,29,26.40
2018,07,29,10,30,26.40
2018,07,29,10,31,26.40
2018,07,29,10,32,26.40
2018,07,29,10,33,26.50
2018,07,29,10,34,26.40
2018,07,29,10,35,26.40
2018,07,29,10,36,26.30
2018,07,29,10,37,26.30
2018,07,29,10,38,26.40
2018,07,29,10,39,26.40
2018,07,29,10,40,26.40
2018,07,29,10,41,26.40
2018,07,29,10,42,26.40
2018,07,29,10,43,26.40
2018,07,29,10,44,26.40
2018,07,29,10,45,26.30
2018,07,29,10,46,26.30
2018,07,29,10,47,26.30
2018,07,29,10,48,26.30
2018,07,29,10,49,26.30
2018,07,29,10,50,26.30
2018,07,29,10,51,26.40
2018,07,29,10,52,26.50
2018,07,29,10,53,26.70
2018,07,29,10,54,26.80
2018,07,29,10,55,26.90
2018,07,29,10,56,27.10
2018,07,29,10,57,27.20
2018,07,29,10,58,27.40
2018,07,29,10,59,27.60
2018,07,29,11,00,27.60
2018,07,29,11,01,27.70
2018,07,29,11,02,27.70
2018,07,29,11,03,27.70
2018,07,29,11,04,27.70
2018,07,29,11,05,27.80
2018,07,29,11,06,27.90
2018,07,29,11,07,27.90
2018,07,29,11,08,27.90
2018,07,29,11,09,28.00
2018,07,29,11,10,28.00
2018,07,29,11,11,28.10
2018,07,29,11,12,28.10
2018,07,29,11,13,28.20
2018,07,29,11,14,28.30
2018,07,29,11,15,28.30
2018,07,29,11,16,28.40
2018,07,29,11,17,28.40
2018,07,29,11,18,28.50
2018,07,29,11,19,28.60
2018,07,29,11,20,28.60
2018,07,29,11,21,28.60
2018,07,29,11,22,28.70
2018,07,29,11,23,28.70
2018,07,29,11,24,28.80
2018,07,29,11,25,28.80
2018,07,29,11,26,28.80
2018,07,29,11,27,28.80
2018,07,29,11,28,28.90
2018,07,29,11,29,28.90
2018,07,29,11,30,28.90
2018,07,29,11,31,28.90
2018,07,29,11,32,28.90
2018,07,29,11,33,29.00
2018,07,29,11,34,29.00
2018,07,29,11,35,29.10
2018,07,29,11,36,29.10
2018,07,29,11,37,29.20
2018,07,29,11,38,29.20
2018,07,29,11,39,29.30
2018,07,29,11,40,29.30
2018,07,29,11,41,29.30
2018,07,29,11,42,29.40
2018,07,29,11,43,29.40
2018,07,29,11,44,29.40
2018,07,29,11,45,29.50
2018,07,29,11,46,29.60
2018,07,29,11,47,29.70
2018,07,29,11,48,29.70
2018,07,29,11,49,29.70
2018,07,29,11,50,29.70
2018,07,29,11,51,29.70
2018,07,29,11,52,29.60
2018,07,29,11,53,29.60
2018,07,29,11,54,29.60
2018,07,29,11,55,29.70
2018,07,29,11,56,29.70
2018,07,29,11,57,29.80
2018,07,29,11,58,29.90
2018,07,29,11,59,30.00
2018,07,29,12,00,30.10
2018,07,29,12,01,30.10
2018,07,29,12,02,30.20
2018,07,29,12,03,30.20
2018,07,29,12,04,30.30
2018,07,29,12,05,30.30
2018,07,29,12,06,30.20
2018,07,29,12,07,30.20
2018,07,29,12,08,30.30
2018,07,29,12,09,30.20
2018,07,29,12,10,30.20
2018,07,29,12,11,30.20
2018,07,29,12,12,30.20
2018,07,29,12,13,30.20
2018,07,29,12,14,30.20
2018,07,29,12,15,30.30
2018,07,29,12,16,30.30
2018,07,29,12,17,30.40
2018,07,29,12,18,30.50
2018,07,29,12,19,30.60
2018,07,29,12,20,30.80
2018,07,29,12,21,30.90
2018,07,29,12,22,31.00
2018,07,29,12,23,31.00
2018,07,29,12,24,30.90
2018,07,29,12,25,30.90
2018,07,29,12,26,31.00
2018,07,29,12,27,31.10
2018,07,29,12,28,31.10
2018,07,29,12,29,31.20
2018,07,29,12,30,31.20
2018,07,29,12,31,31.20
2018,07,29,12,32,31.20
2018,07,29,12,33,31.20
2018,07,29,12,34,31.10
2018,07,29,12,35,30.90
2018,07,29,12,36,30.80
2018,07,29,12,37,30.60
2018,07,29,12,38,30.40
2018,07,29,12,39,30.30
2018,07,29,12,40,30.10
2018,07,29,12,41,29.90
2018,07,29,12,42,29.70
2018,07,29,12,43,29.50
2018,07,29,12,44,29.20
2018,07,29,12,45,29.10
2018,07,29,12,46,29.00
2018,07,29,12,47,28.90
2018,07,29,12,48,28.80
2018,07,29,12,49,28.70
2018,07,29,12,50,28.70
2018,07,29,12,51,28.60
2018,07,29,12,52,28.60
2018,07,29,12,53,28.60
2018,07,29,12,54,28.60
2018,07,29,12,55,28.50
2018,07,29,12,56,28.40
2018,07,29,12,57,28.40
2018,07,29,12,58,28.30
2018,07,29,12,59,28.40
2018,07,29,13,00,28.50
2018,07,29,13,01,28.50
2018,07,29,13,02,28.60
2018,07,29,13,03,28.60
2018,07,29,13,04,28.60
2018,07,29,13,05,28.70
2018,07,29,13,06,28.70
2018,07,29,13,07,28.70
2018,07,29,13,08,28.80
2018,07,29,13,09,28.80
2018,07,29,13,10,28.90
2018,07,29,13,11,28.90
2018,07,29,13,12,28.90
2018,07,29,13,13,28.80
2018,07,29,13,14,28.70
2018,07,29,13,15,28.60
2018,07,29,13,16,28.60
2018,07,29,13,17,28.60
2018,07,29,13,18,28.60
2018,07,29,13,19,28.60
2018,07,29,13,20,28.70
2018,07,29,13,21,28.80
2018,07,29,13,22,29.00
2018,07,29,13,23,29.10
2018,07,29,13,24,29.30
2018,07,29,13,25,29.40
2018,07,29,13,26,29.50
2018,07,29,13,27,29.60
2018,07,29,13,28,29.60
2018,07,29,13,29,29.70
2018,07,29,13,30,29.70
2018,07,29,13,31,29.80
2018,07,29,13,32,29.80
2018,07,29,13,33,29.90
2018,07,29,13,34,30.00
2018,07,29,13,35,30.00
2018,07,29,13,36,30.10
2018,07,29,13,37,30.20
2018,07,29,13,38,30.40
2018,07,29,13,39,30.40
2018,07,29,13,40,30.40
2018,07,29,13,41,30.50
2018,07,29,13,42,30.50
2018,07,29,13,43,30.40
2018,07,29,13,44,30.40
2018,07,29,13,45,30.40
2018,07,29,13,46,30.40
2018,07,29,13,47,30.40
2018,07,29,13,48,30.50
2018,07,29,13,49,30.60
2018,07,29,13,50,30.70
2018,07,29,13,51,30.90
2018,07,29,13,52,31.00
2018,07,29,13,53,31.10
2018,07,29,13,54,31.10
2018,07,29,13,55,31.10
2018,07,29,13,56,31.10
2018,07,29,13,57,31.20
2018,07,29,13,58,31.20
2018,07,29,13,59,31.10
2018,07,29,14,00,31.00
2018,07,29,14,01,30.90
2018,07,29,14,02,30.80
2018,07,29,14,03,30.80
2018,07,29,14,04,30.80
2018,07,29,14,05,30.80
2018,07,29,14,06,30.80
2018,07,29,14,07,30.80
2018,07,29,14,08,30.80
2018,07,29,14,09,30.70
2018,07,29,14,10,30.60
2018,07,29,14,11,30.50
2018,07,29,14,12,30.40
2018,07,29,14,13,30.30
2018,07,29,14,14,30.20
2018,07,29,14,15,30.20
2018,07,29,14,16,30.20
2018,07,29,14,17,30.20
2018,07,29,14,18,30.10
2018,07,29,14,19,30.10
2018,07,29,14,20,30.00
2018,07,29,14,21,29.90
2018,07,29,14,22,29.90
2018,07,29,14,23,29.90
2018,07,29,14,24,29.90
2018,07,29,14,25,30.00
2018,07,29,14,26,30.00
2018,07,29,14,27,30.10
2018,07,29,14,28,30.10
2018,07,29,14,29,30.10
2018,07,29,14,30,30.10
2018,07,29,14,31,30.00
2018,07,29,14,32,29.90
2018,07,29,14,33,29.90
2018,07,29,14,34,29.90
2018,07,29,14,35,29.90
2018,07,29,14,36,29.90
2018,07,29,14,37,29.80
2018,07,29,14,38,29.80
2018,07,29,14,39,29.70
2018,07,29,14,40,29.60
2018,07,29,14,41,29.60
2018,07,29,14,42,29.50
2018,07,29,14,43,29.40
2018,07,29,14,44,29.30
2018,07,29,14,45,29.30
2018,07,29,14,46,29.30
2018,07,29,14,47,29.30
2018,07,29,14,48,29.20
2018,07,29,14,49,29.20
2018,07,29,14,50,29.20
2018,07,29,14,51,29.30
2018,07,29,14,52,29.30
2018,07,29,14,53,29.40
2018,07,29,14,54,29.50
2018,07,29,14,55,29.60
2018,07,29,14,56,29.60
2018,07,29,14,57,29.60
2018,07,29,14,58,29.50
2018,07,29,14,59,29.50
2018,07,29,15,00,29.50
2018,07,29,15,01,29.40
2018,07,29,15,02,29.40
2018,07,29,15,03,29.40
2018,07,29,15,04,29.40
2018,07,29,15,05,29.50
2018,07,29,15,06,29.50
2018,07,29,15,07,29.60
2018,07,29,15,08,29.70
2018,07,29,15,09,29.70
2018,07,29,15,10,29.60
2018,07,29,15,11,29.60
2018,07,29,15,12,29.60
2018,07,29,15,13,29.60
2018,07,29,15,14,29.60
2018,07,29,15,15,29.60
2018,07,29,15,16,29.60
2018,07,29,15,17,29.60
2018,07,29,15,18,29.60
2018,07,29,15,19,29.60
2018,07,29,15,20,29.60
2018,07,29,15,21,29.60
2018,07,29,15,22,29.60
2018,07,29,15,23,29.60
2018,07,29,15,24,29.60
2018,07,29,15,25,29.50
2018,07,29,15,26,29.50
2018,07,29,15,27,29.50
2018,07,29,15,28,29.60
2018,07,29,15,29,29.50
2018,07,29,15,30,29.40
2018,07,29,15,31,29.30
2018,07,29,15,32,29.30
2018,07,29,15,33,29.30
2018,07,29,15,34,29.30
2018,07,29,15,35,29.30
2018,07,29,15,36,29.30
2018,07,29,15,37,29.30
2018,07,29,15,38,29.40
2018,07,29,15,39,29.50
2018,07,29,15,40,29.50
2018,07,29,15,41,29.60
2018,07,29,15,42,29.60
2018,07,29,15,43,29.60
2018,07,29,15,44,29.70
2018,07,29,15,45,29.80
2018,07,29,15,46,30.00
2018,07,29,15,47,30.10
2018,07,29,15,48,30.20
2018,07,29,15,49,30.20
2018,07,29,15,50,30.30
2018,07,29,15,51,30.50
2018,07,29,15,52,30.60
2018,07,29,15,53,30.60
2018,07,29,15,54,30.70
2018,07,29,15,55,30.70
2018,07,29,15,56,30.70
2018,07,29,15,57,30.70
2018,07,29,15,58,30.70
2018,07,29,15,59,30.70
2018,07,29,16,00,30.70
2018,07,29,16,01,30.60
2018,07,29,16,02,30.60
2018,07,29,16,03,30.50
2018,07,29,16,04,30.40
2018,07,29,16,05,30.40
2018,07,29,16,06,30.40
2018,07,29,16,07,30.40
2018,07,29,16,08,30.40
2018,07,29,16,09,30.30
2018,07,29,16,10,30.20
2018,07,29,16,11,30.30
2018,07,29,16,12,30.30
2018,07,29,16,13,30.30
2018,07,29,16,14,30.30
2018,07,29,16,15,30.30
2018,07,29,16,16,30.30
2018,07,29,16,17,30.30
2018,07,29,16,18,30.30
2018,07,29,16,19,30.40
2018,07,29,16,20,30.40
2018,07,29,16,21,30.40
2018,07,29,16,22,30.50
2018,07,29,16,23,30.50
2018,07,29,16,24,30.50
2018,07,29,16,25,30.50
2018,07,29,16,26,30.60
2018,07,29,16,27,30.60
2018,07,29,16,28,30.70
2018,07,29,16,29,30.80
2018,07,29,16,30,30.80
2018,07,29,16,31,30.70
2018,07,29,16,32,30.70
2018,07,29,16,33,30.60
2018,07,29,16,34,30.50
2018,07,29,16,35,30.50
2018,07,29,16,36,30.40
2018,07,29,16,37,30.30
2018,07,29,16,38,30.30
2018,07,29,16,39,30.30
2018,07,29,16,40,30.30
2018,07,29,16,41,30.20
2018,07,29,16,42,30.20
2018,07,29,16,43,30.20
2018,07,29,16,44,30.20
2018,07,29,16,45,30.20
2018,07,29,16,46,30.20
2018,07,29,16,47,30.10
2018,07,29,16,48,30.00
2018,07,29,16,49,30.00
2018,07,29,16,50,30.00
2018,07,29,16,51,30.00
2018,07,29,16,52,30.10
2018,07,29,16,53,30.10
2018,07,29,16,54,30.20
2018,07,29,16,55,30.20
2018,07,29,16,56,30.20
2018,07,29,16,57,30.20
2018,07,29,16,58,30.20
2018,07,29,16,59,30.20
2018,07,29,17,00,30.20
2018,07,29,17,01,30.20
2018,07,29,17,02,30.20
2018,07,29,17,03,30.20
2018,07,29,17,04,30.30
2018,07,29,17,05,30.30
2018,07,29,17,06,30.40
2018,07,29,17,07,30.40
2018,07,29,17,08,30.40
2018,07,29,17,09,30.40
2018,07,29,17,10,30.40
2018,07,29,17,11,30.40
2018,07,29,17,12,30.50
2018,07,29,17,13,30.50
2018,07,29,17,14,30.60
2018,07,29,17,15,30.70
2018,07,29,17,16,30.70
2018,07,29,17,17,30.80
2018,07,29,17,18,30.80
2018,07,29,17,19,30.80